GFSMW_850_thetae_051.txt.gz
Theta_e
330 330 328 328 329 329 328 327 326 323 322 324 325 327 328 327 325 322 318 318 319 319 318 314 311 310 309 309 307 304 302 301 300 299 298 297 298 298 298 298 296 297 297
331 331 329 329 328 328 327 325 325 324 321 324 326 327 327 326 323 319 319 319 318 317 314 311 310 310 310 307 306 304 303 302 301 301 299 296 295 297 298 296 297 297 296
332 331 330 329 328 327 325 323 318 316 317 323 327 327 326 324 321 321 321 320 318 316 312 311 311 310 308 307 305 304 304 303 303 301 296 295 295 295 295 296 297 297 296
330 329 327 328 327 326 325 324 320 317 319 322 326 326 325 324 323 323 321 318 317 313 311 311 310 308 307 306 305 304 304 303 301 296 293 293 294 296 297 297 297 296 295
327 327 327 326 326 326 325 325 322 323 323 325 326 326 326 323 323 320 318 317 314 312 311 310 309 309 308 306 305 304 303 300 294 292 292 292 293 294 296 298 297 295 294
324 325 326 326 326 326 325 325 325 326 326 327 327 325 324 323 322 319 317 314 312 312 311 309 307 307 306 306 304 302 299 294 292 292 293 293 294 295 296 296 295 294 294
321 324 325 326 326 325 325 326 326 327 327 328 326 324 323 322 320 317 314 313 313 312 311 309 307 307 304 305 300 299 294 292 292 293 293 293 294 295 294 294 293 293 292
322 322 324 325 325 326 326 327 327 328 327 327 326 324 321 318 316 315 315 315 314 313 311 307 308 305 305 300 302 299 292 292 293 293 291 291 292 292 292 293 292 292 291
321 321 322 324 325 326 327 327 328 328 328 327 325 323 321 318 317 316 317 316 314 312 309 308 305 305 302 299 295 292 293 293 293 291 290 290 291 291 291 291 291 291 290
323 322 322 322 323 325 326 327 329 329 328 324 322 323 322 320 318 317 316 315 312 311 308 307 305 299 298 296 293 292 293 293 292 292 290 290 290 290 290 290 290 289 288
324 324 325 324 324 326 327 328 329 328 327 325 324 324 322 320 318 316 314 313 310 307 308 306 301 299 297 296 292 292 292 293 293 294 291 291 291 290 290 289 289 288 287
326 327 327 327 327 327 329 330 328 326 323 324 325 324 321 318 316 313 311 310 307 308 304 302 299 298 297 294 292 292 293 294 294 294 292 291 291 290 289 289 287 286 286
327 327 328 328 327 328 330 329 327 324 324 324 324 322 317 317 314 313 309 307 307 303 304 299 298 297 294 293 292 292 293 294 294 293 292 292 291 290 290 287 286 286 286
327 327 327 327 327 329 327 326 326 325 325 324 322 318 317 315 311 307 309 305 302 300 298 297 296 295 294 293 293 293 293 293 293 293 291 292 291 290 289 287 286 286 285
324 326 326 327 328 328 327 326 325 323 322 320 319 316 313 311 310 309 303 302 298 300 297 295 296 295 294 294 293 293 293 292 293 292 290 290 290 290 288 287 285 285 285
320 323 325 326 325 325 326 324 323 320 320 318 316 312 311 309 305 302 301 299 298 296 297 300 297 294 294 294 294 293 292 292 292 291 290 290 290 289 288 286 285 285 284
319 319 320 321 322 321 322 322 321 319 317 316 312 310 307 304 301 300 299 296 297 300 299 297 294 294 293 293 293 293 292 292 291 291 290 290 289 289 286 285 285 285 284
317 318 319 320 320 320 319 319 318 316 313 311 308 306 303 300 297 297 298 300 299 296 294 294 293 293 292 292 292 292 291 291 290 290 289 287 288 287 286 285 284 284 283
314 315 317 318 319 319 318 317 315 312 309 306 303 300 298 298 298 300 300 300 294 294 293 293 291 290 290 291 291 291 291 291 289 289 288 287 287 286 284 284 284 283 283
313 314 314 315 316 315 315 314 309 305 301 298 297 297 298 299 300 300 296 294 293 293 292 291 291 291 290 290 291 291 291 290 290 288 288 287 286 285 284 283 283 282 282
311 311 311 311 310 308 307 306 300 299 297 297 298 299 300 299 297 294 293 293 292 290 290 290 290 290 291 291 291 291 290 290 289 288 287 287 286 286 285 284 283 282 281
306 305 305 303 301 301 303 300 300 300 302 300 299 298 296 294 293 292 292 290 290 290 290 290 289 289 290 291 291 290 290 289 288 288 287 286 286 286 285 284 283 282 282
302 301 302 300 299 300 300 301 300 299 297 296 295 293 292 291 290 289 289 289 289 289 289 289 289 289 289 289 289 289 289 288 288 287 287 287 286 286 285 284 283 283 282
300 300 300 300 299 298 297 296 294 293 292 292 290 290 289 289 289 289 289 289 289 289 289 289 289 290 289 289 289 289 288 287 287 287 287 287 286 286 285 284 284 283 283
299 298 298 297 294 293 292 292 291 291 291 290 290 290 290 290 290 290 290 290 290 290 290 290 290 290 290 290 290 289 288 287 287 287 287 287 285 286 285 284 284 283 282
296 295 294 293 292 292 291 291 291 291 290 290 290 290 290 290 290 290 289 290 290 290 290 290 291 291 291 291 290 290 289 287 287 286 286 286 286 285 285 284 283 283 282

GFSMW_850_thetae_054.txt.gz
Theta_e
328 328 327 326 322 324 325 324 327 325 319 314 321 325 325 326 326 325 325 324 321 319 320 321 321 316 309 309 308 305 303 303 302 301 300 297 295 296 296 296 294 295 295
329 329 329 327 324 324 325 327 328 327 322 318 320 324 324 325 326 326 325 320 318 319 320 319 314 310 309 309 308 305 304 304 303 302 299 295 295 296 295 296 295 295 296
329 330 329 328 326 326 325 325 326 324 324 323 321 323 325 325 325 325 323 319 318 318 317 313 310 309 309 308 306 305 305 304 303 301 296 294 293 293 294 293 295 296 295
329 330 330 329 327 326 326 327 326 325 324 324 321 321 324 324 324 325 323 320 319 317 313 310 309 309 308 306 305 304 303 303 301 298 293 292 292 293 294 295 295 295 295
330 330 330 328 327 327 327 326 327 325 323 323 322 322 323 325 325 323 322 321 318 314 312 310 309 308 306 305 304 303 301 299 296 293 292 292 292 292 294 295 295 295 294
330 331 331 331 330 328 328 327 326 325 323 321 319 321 324 325 324 322 321 320 316 313 311 310 309 308 306 306 306 307 301 302 300 292 292 292 292 292 293 294 294 294 292
329 329 327 329 328 327 327 327 326 325 324 321 319 322 324 325 323 322 321 318 316 314 312 311 310 307 306 308 307 303 303 299 295 292 292 291 290 291 291 291 292 293 291
329 328 327 326 327 326 326 326 326 325 325 323 322 324 326 326 323 322 319 318 316 313 312 310 307 305 306 306 306 301 298 294 291 292 292 291 290 290 290 290 290 291 290
324 327 327 326 325 325 325 324 325 325 325 325 325 326 326 324 323 320 318 315 314 313 312 311 308 306 308 306 304 296 293 292 292 292 292 292 290 290 290 290 290 290 289
320 322 325 325 324 324 324 325 325 325 325 325 326 326 325 324 322 317 316 315 315 314 313 309 306 309 307 300 297 295 292 291 292 292 293 293 291 290 290 290 289 289 288
322 321 321 321 321 322 323 324 325 326 326 327 327 326 323 322 322 320 317 315 316 314 310 308 310 307 302 301 297 293 293 293 293 294 293 293 291 291 291 290 289 289 287
322 322 322 323 323 322 323 323 324 326 326 328 327 325 323 323 323 321 320 318 315 312 311 310 307 304 299 296 294 294 292 293 294 294 293 293 291 291 291 290 290 289 286
324 325 325 325 325 325 326 325 325 327 326 324 324 324 323 323 323 321 318 314 312 310 307 305 303 298 297 294 295 293 294 293 293 293 293 292 290 291 291 290 290 287 286
323 325 325 324 326 326 327 327 327 325 324 324 324 323 323 323 319 314 312 309 307 306 304 300 298 295 296 296 294 294 293 293 293 292 292 291 290 290 290 290 289 287 286
320 323 326 327 327 328 328 327 326 325 325 324 324 323 321 317 312 309 307 306 305 301 298 297 299 298 296 295 294 294 293 293 292 291 291 291 290 290 289 289 288 287 286
319 321 323 324 324 325 326 326 325 324 323 322 321 320 315 310 308 307 306 304 299 298 297 300 298 299 295 294 294 293 293 293 292 291 291 291 290 289 289 288 288 286 285
318 318 319 320 321 321 321 321 322 321 320 318 316 312 309 307 306 303 300 298 297 299 300 300 298 295 294 294 293 292 292 292 291 291 291 289 289 288 287 287 287 285 285
317 317 318 318 319 319 319 319 318 317 316 314 311 309 306 302 299 297 297 297 299 300 300 296 294 293 293 291 290 291 291 291 291 291 290 289 289 288 287 287 286 284 284
314 314 315 315 316 318 317 317 315 313 312 309 306 301 299 297 298 299 299 300 300 297 294 293 293 292 291 290 290 290 290 290 291 291 290 289 288 288 287 286 285 284 283
313 313 313 314 315 314 314 313 311 309 305 301 299 298 299 299 300 300 299 297 294 293 292 292 291 290 290 290 290 290 291 291 290 290 290 289 288 287 287 286 285 284 284
310 310 310 310 309 308 307 308 303 300 298 298 298 299 300 300 298 295 293 293 292 291 290 290 290 290 289 289 290 290 291 291 290 290 290 289 288 287 286 286 286 285 283
306 305 306 304 302 301 303 300 300 299 301 302 299 296 294 293 292 291 290 290 289 289 289 289 289 289 289 289 289 289 290 290 290 289 289 288 287 287 286 286 285 285 283
302 301 301 299 299 299 300 301 298 297 296 294 293 291 290 290 289 289 289 289 289 289 289 290 289 289 289 289 289 289 289 289 289 288 288 287 287 287 286 286 286 285 284
300 299 299 299 298 297 297 296 295 293 292 291 290 290 290 290 290 290 290 290 290 290 290 290 290 290 290 290 290 290 290 289 289 288 288 287 287 287 287 286 286 285 284
298 298 298 297 295 294 294 293 292 291 290 290 290 290 289 289 289 289 289 288 287 286 285 284 284 284 285 286 287 288 289 290 290 289 287 287 286 286 286 286 285 285 284
298 297 296 295 293 292 291 290 290 290 289 289 289 288 287 286 284 284 283 283 282 282 281 281 281 281 282 282 283 285 286 287 288 288 288 287 287 286 286 286 286 285 285

GFSMW_850_thetae_057.txt.gz
Theta_e
326 326 326 324 323 322 322 324 321 321 320 315 313 315 318 317 320 324 323 324 325 325 323 321 321 320 319 312 309 308 306 305 304 303 302 299 296 296 297 296 297 295 294
325 326 327 325 325 321 321 323 323 323 324 319 313 314 317 320 323 325 325 324 324 323 320 320 320 320 316 309 308 307 306 304 304 303 300 299 298 296 295 294 297 294 295
327 327 327 327 326 324 321 322 324 324 326 324 317 313 319 323 325 325 324 324 323 320 319 319 319 316 309 308 308 307 305 304 303 301 298 297 297 293 294 293 293 294 295
325 327 328 328 327 325 324 323 325 326 326 327 323 318 318 321 322 322 323 323 321 318 318 318 315 310 308 309 307 306 305 305 302 299 297 294 293 296 296 296 293 294 294
326 325 328 328 327 327 326 325 325 326 327 326 326 323 322 323 322 323 324 322 318 318 318 316 311 309 308 309 306 305 304 303 305 303 299 293 292 292 294 295 296 295 295
326 326 327 328 328 327 326 326 326 326 326 326 325 324 323 323 322 323 324 322 319 318 317 314 311 309 308 308 306 306 305 303 304 301 296 292 292 295 295 295 295 295 294
327 326 327 328 329 329 328 327 326 326 326 327 326 324 322 322 324 325 325 322 321 318 317 313 312 310 308 306 305 305 304 301 300 294 292 291 291 291 291 294 294 294 293
326 328 326 326 328 329 329 329 326 326 326 326 326 324 322 323 322 324 325 322 320 319 316 314 312 309 308 306 305 307 304 298 295 293 292 292 292 291 290 293 293 293 292
322 325 329 328 328 328 327 326 327 326 326 326 326 325 324 324 322 322 323 321 319 317 315 314 311 309 306 306 307 307 299 298 295 292 292 292 293 292 291 290 292 292 292
319 320 323 326 328 328 327 326 326 325 326 326 326 325 324 323 323 324 322 321 318 316 314 313 311 308 306 307 306 300 297 299 293 293 293 293 293 292 291 291 290 291 291
321 322 321 321 323 324 325 324 324 324 325 325 325 324 324 324 325 325 322 321 319 315 313 311 306 304 307 304 302 298 299 294 293 293 294 293 293 292 291 291 291 290 289
322 322 321 321 321 321 322 321 322 323 324 325 325 325 325 325 324 322 321 321 319 316 312 311 306 307 306 303 302 300 296 294 293 293 293 293 293 292 291 291 291 290 289
323 322 322 323 323 323 323 323 323 324 324 325 326 324 323 323 322 322 322 321 315 316 311 306 307 305 302 301 299 297 294 293 293 293 293 292 292 292 290 290 290 289 289
317 323 324 323 323 324 324 325 325 326 326 326 325 325 324 323 322 320 320 317 314 311 306 306 304 303 302 300 297 294 294 294 293 293 293 292 292 291 291 290 289 289 289
315 318 323 325 326 326 326 326 327 327 327 326 324 323 320 320 318 317 316 312 309 306 305 305 302 301 301 300 296 295 294 294 293 293 292 292 291 291 290 290 289 288 288
319 320 321 322 322 323 324 324 325 324 323 322 320 319 318 317 314 311 307 306 305 303 301 300 300 300 300 298 294 294 294 293 293 292 292 291 291 290 289 289 288 288 287
317 318 319 319 320 320 320 321 321 321 319 317 317 315 313 309 307 305 304 303 300 298 298 299 300 298 298 294 294 293 293 292 292 292 292 291 291 290 289 289 288 287 287
316 316 316 316 317 317 318 318 317 316 315 314 311 308 306 306 304 301 299 297 298 299 300 299 298 294 294 293 292 291 290 290 290 290 291 291 291 290 289 289 288 287 287
314 314 314 315 315 316 316 315 314 313 312 309 308 305 302 300 298 298 299 300 299 299 298 294 293 293 292 292 290 291 291 291 290 290 290 290 291 290 289 289 288 287 286
312 312 313 313 313 313 312 313 311 310 307 303 301 299 299 299 301 300 300 297 294 293 293 292 291 290 290 290 290 290 290 291 291 290 290 291 290 290 289 288 288 287 286
310 310 310 311 310 308 309 308 304 303 302 300 300 300 302 300 298 294 293 292 291 290 290 289 289 289 288 288 289 289 289 289 289 290 290 290 290 290 289 287 287 287 286
306 307 307 305 304 303 305 302 301 299 299 301 302 299 295 294 292 291 290 289 289 289 289 289 289 289 289 289 289 289 289 290 289 289 289 289 289 289 289 287 287 286 286
303 303 303 301 299 299 300 301 300 299 298 296 294 292 291 290 290 290 289 289 289 289 289 288 286 285 284 284 283 283 284 287 289 290 290 289 288 288 288 288 287 287 286
300 300 300 300 299 298 298 297 295 294 293 291 291 290 290 289 289 289 287 286 284 283 282 282 283 283 282 283 283 283 283 284 285 285 287 288 288 288 288 288 287 287 287
299 299 299 298 296 295 295 293 292 291 290 290 289 289 288 286 285 284 284 283 282 281 281 281 281 281 281 282 281 282 282 283 282 284 285 286 287 287 287 287 286 286 286
297 297 296 296 294 292 291 290 290 289 289 288 287 286 285 284 283 283 283 282 281 281 280 280 280 280 280 280 281 281 282 283 283 283 284 286 286 286 287 287 286 286 286

GFSMW_850_thetae_060.txt.gz
Theta_e
328 329 327 327 326 323 324 325 325 325 325 324 317 320 320 321 320 323 324 323 321 322 323 323 323 321 318 318 318 310 308 308 307 307 307 305 303 303 302 301 301 300 299
329 329 329 327 327 325 325 325 327 327 324 324 321 318 317 321 322 323 321 322 323 323 324 323 323 320 316 318 315 309 309 308 308 307 305 308 305 303 302 302 300 301 300
327 329 329 329 328 327 327 326 327 328 326 327 324 321 321 321 320 321 319 323 323 323 324 323 321 319 318 316 310 308 309 309 306 305 304 307 307 304 302 301 300 300 299
327 329 330 329 329 328 328 327 327 328 328 326 326 323 320 320 321 321 321 323 323 324 323 321 320 319 317 312 309 309 308 307 305 304 306 304 302 302 301 300 299 300 299
327 328 329 330 330 329 329 328 327 327 328 327 326 326 323 320 323 323 322 323 324 323 321 319 319 318 316 311 308 309 307 306 305 304 302 301 301 300 299 299 298 298 298
329 327 327 330 330 330 330 327 326 327 327 326 326 326 326 325 324 321 322 323 324 323 321 319 318 316 311 310 308 308 308 306 307 308 306 297 298 298 298 298 298 298 297
329 330 328 329 330 331 331 328 327 328 327 327 326 327 327 326 323 321 322 323 324 324 323 319 317 314 311 309 308 307 305 306 308 307 295 296 297 296 296 297 297 297 296
327 329 330 329 330 331 331 328 326 328 328 327 326 327 326 325 323 321 321 322 324 325 321 319 316 313 311 309 307 305 306 306 306 302 299 295 296 296 296 296 295 296 295
324 327 328 329 331 331 331 330 329 329 330 328 326 327 326 324 321 319 320 323 324 323 320 317 315 314 310 308 305 304 306 304 302 300 296 293 296 296 296 295 295 295 295
322 323 326 328 330 331 331 331 330 330 330 330 327 326 326 325 324 323 323 323 322 322 320 319 316 312 310 308 304 306 305 301 301 297 295 296 296 296 295 295 294 294 294
324 323 323 324 326 329 329 329 329 329 329 328 327 325 325 325 325 324 323 323 324 322 321 317 314 314 310 305 303 304 301 301 300 296 296 296 296 296 295 294 294 293 293
324 324 324 324 325 326 327 328 327 327 327 327 326 324 324 324 324 324 323 321 322 321 315 314 314 312 308 304 305 303 301 300 297 297 296 296 295 295 295 294 293 293 292
324 325 325 325 326 327 327 327 327 327 327 325 325 326 325 325 324 323 323 322 322 318 316 312 311 307 304 304 303 302 300 298 297 296 296 296 296 295 294 294 293 292 292
318 325 326 327 327 328 326 324 324 324 325 325 327 328 326 326 324 323 322 319 317 316 313 309 305 304 303 301 301 301 298 298 296 296 296 295 295 295 294 294 293 292 291
319 321 326 328 328 328 327 326 326 326 326 327 324 323 321 321 320 319 317 314 314 311 308 305 304 302 301 300 300 299 298 297 297 296 296 295 295 294 293 293 292 291 291
320 321 323 325 325 324 322 325 325 323 322 322 321 319 318 318 316 314 312 310 308 306 304 303 302 303 301 300 299 298 296 296 296 296 295 295 294 293 292 291 291 290 290
318 319 320 320 320 321 321 321 321 319 319 318 316 315 313 313 310 309 307 306 304 303 302 302 302 300 300 299 296 294 294 294 295 295 295 294 293 293 292 292 291 290 289
315 315 315 316 316 317 317 316 315 316 315 314 313 311 309 307 305 304 304 303 302 302 301 300 299 298 296 294 293 293 292 293 293 293 293 293 293 293 293 292 291 291 290
311 311 311 312 312 312 312 311 312 313 313 309 306 304 306 306 304 302 302 302 301 300 299 297 295 295 295 293 291 290 290 292 292 292 292 292 292 292 292 291 291 291 290
308 309 310 309 310 309 308 310 310 308 306 304 303 302 301 301 302 302 301 297 296 294 294 293 292 290 290 289 289 289 289 289 291 291 291 291 291 291 291 291 291 290 290
307 307 306 306 306 305 305 305 304 303 301 300 301 300 302 301 298 296 294 293 292 290 290 289 289 289 290 290 289 289 289 289 289 290 290 290 290 290 290 290 290 290 290
305 304 304 304 304 304 304 303 302 300 300 300 302 300 297 295 293 291 291 291 292 291 291 290 288 289 288 287 286 284 283 283 285 285 285 286 288 289 290 289 289 290 289
303 303 303 302 302 301 300 299 297 298 299 298 296 294 292 290 290 290 289 289 288 286 287 286 287 287 286 285 285 284 283 282 282 282 283 284 285 285 286 288 288 289 289
302 301 299 298 297 297 298 300 298 296 294 293 291 290 290 289 288 286 285 285 284 284 284 285 285 284 284 284 282 280 281 281 281 282 283 284 283 284 285 286 288 288 289
299 299 298 297 297 298 298 298 296 292 291 290 289 289 287 286 285 284 284 283 282 282 281 282 282 281 281 280 278 278 278 280 280 283 283 284 285 285 286 286 287 287 288
298 297 295 297 297 296 295 293 291 290 289 288 287 286 285 284 283 283 283 282 281 281 280 279 278 278 278 278 278 278 278 279 281 283 284 284 285 285 286 287 287 287 287

GFSMW_850_thetae_063.txt.gz
Theta_e
328 327 327 325 324 324 323 323 322 322 324 324 322 320 321 321 322 323 325 326 325 325 324 323 322 322 319 317 316 316 314 311 311 311 312 310 309 307 306 305 305 304 303
328 327 327 326 324 324 324 324 323 323 325 325 324 321 319 320 321 322 325 326 325 325 322 322 322 322 319 317 316 315 313 312 311 312 310 312 310 307 306 305 305 304 303
328 328 327 328 326 325 325 326 326 325 325 325 324 322 320 320 322 323 324 324 325 322 323 323 322 321 321 317 317 315 313 313 311 309 309 310 309 308 307 306 304 303 303
328 329 330 329 329 328 326 326 327 326 327 327 325 324 321 320 321 323 324 324 323 320 323 322 321 321 320 317 317 315 313 312 312 309 309 308 308 306 307 306 303 303 302
326 327 329 330 330 330 329 328 327 327 328 328 327 327 324 322 322 323 324 324 323 323 322 322 321 322 318 316 315 313 312 311 311 308 308 310 309 305 303 304 304 302 301
326 326 328 329 329 330 330 330 329 328 328 329 329 329 327 326 322 322 326 325 325 322 322 323 323 321 319 317 314 312 311 310 309 307 307 309 307 302 300 301 301 301 301
328 327 326 328 329 329 330 331 331 329 329 329 329 329 329 329 327 326 326 322 323 322 322 322 323 321 318 314 312 311 310 309 306 306 307 306 300 300 299 299 300 300 300
326 328 328 327 329 330 331 331 331 331 330 330 331 331 330 330 329 327 323 323 320 321 321 320 323 319 315 312 310 310 309 308 305 306 307 301 300 297 299 299 299 299 298
324 327 328 329 328 330 331 332 332 331 331 330 331 332 331 331 330 328 324 322 320 320 321 323 321 319 315 310 310 310 308 306 304 307 305 300 297 298 299 299 298 297 297
324 326 328 329 330 330 331 333 334 333 332 332 332 331 329 329 329 328 324 321 320 321 322 322 321 318 314 310 310 309 307 303 305 304 303 303 298 299 298 298 297 297 296
324 326 326 327 329 331 333 334 334 334 333 333 332 331 329 328 327 326 325 322 322 323 322 320 319 314 312 311 310 306 304 303 304 304 302 299 299 299 299 298 297 296 296
323 325 326 326 327 329 331 333 333 334 333 333 333 331 329 328 327 324 322 323 322 322 321 319 318 314 311 312 311 303 303 302 302 302 299 299 299 298 298 297 296 296 295
323 324 325 326 327 328 329 331 331 331 330 330 330 329 327 327 323 323 323 322 321 321 319 314 313 312 311 310 304 303 302 302 301 299 299 299 298 298 298 297 296 296 295
321 323 325 327 329 330 330 330 330 330 329 329 328 327 324 323 322 321 320 320 319 317 315 313 312 309 306 304 303 302 302 301 299 299 299 298 298 297 297 297 296 295 295
321 321 326 327 329 330 329 328 326 325 325 325 325 323 323 322 321 320 319 319 316 315 312 310 307 305 303 303 303 302 300 299 299 298 298 298 297 297 296 296 294 294 294
323 323 325 329 330 330 325 325 325 326 326 325 322 322 320 319 318 316 315 314 313 311 308 306 304 303 303 302 301 300 299 298 297 298 298 297 297 297 296 296 295 294 292
323 324 326 328 327 325 322 319 320 321 321 320 318 317 315 314 312 310 311 310 308 306 305 304 303 303 301 300 299 296 295 296 296 296 296 296 296 295 295 295 294 294 293
321 322 323 322 322 321 319 318 316 314 312 311 310 308 307 307 307 307 305 305 304 303 302 301 300 300 298 297 295 293 293 293 294 294 294 294 294 294 294 293 293 293 293
319 319 318 318 317 315 314 313 312 310 309 308 307 306 306 307 306 305 303 302 302 300 299 298 298 297 297 296 294 291 290 291 292 292 292 293 293 293 292 292 292 292 292
314 315 315 314 314 312 311 310 309 309 308 307 306 305 304 303 302 302 301 300 300 298 297 296 295 294 293 293 293 291 290 290 290 290 290 290 291 292 292 291 291 291 291
312 312 313 312 311 310 310 310 308 307 306 305 304 303 303 302 300 299 298 296 295 294 294 292 294 293 293 292 290 288 286 285 285 284 284 284 286 286 286 288 290 290 290
310 311 310 310 309 309 309 308 306 304 303 302 300 300 298 296 296 296 295 294 294 294 293 291 289 290 289 288 287 286 285 284 283 282 282 282 281 282 282 283 283 284 287
309 309 309 308 308 308 307 305 303 301 300 299 297 296 295 294 293 293 292 291 290 290 289 288 288 288 287 286 286 285 282 281 281 280 280 280 281 282 284 284 284 285 285
308 308 307 307 305 304 302 301 300 298 297 296 295 293 292 290 289 289 288 288 288 286 285 286 287 286 284 284 283 280 280 280 279 279 280 281 284 284 285 285 286 286 286
307 306 304 302 301 299 298 297 297 296 295 293 291 290 289 288 288 287 286 285 285 284 283 283 282 281 280 281 279 278 278 278 278 279 280 283 284 284 285 286 286 286 287
304 303 302 300 297 296 295 294 294 293 291 289 289 288 287 286 286 286 286 285 283 282 282 281 280 279 279 278 278 278 278 278 278 279 281 281 281 282 282 283 285 287 287